Starlink 4341

operational
NORAD ID: 53052 Int'l Des: 2022-077 Owner: SPXS Country: US Constellation: starlink
LEOCIRCULARRETROGRADESSO

Über Starlink 4341

Beschreibung wird geladen...

Live-Position

3D-Globus wird geladen...

Nächste Überflüge

Höhenverlauf

Altitude vs Time

uPlot chart will show altitude changes over time

Zweizeiliger Elementsatz

1 53052U 22077K 25350.24959121 .00001667 00000-0 13430-3 0 9995
2 53052 97.6032 168.5333 0002137 80.7924 279.3542 15.01262736188390
Epoch: 16. Dez. 2025 • Age: 18 hours

Aktueller Status

Höhe 569.5 km
Geschwindigkeit 7.58 km/s
Subsatellitenpunkt 49.13°N, 77.47°E
Startdatum 11. Juli 2022
Alter 3.4 years
Typ internet

Technische Details

Klassifizierung Payload
Masse 297.00 kg
Trockenmasse 275.00 kg
Gesamtmasse 297.00 kg
Länge 0.20 m
Durchmesser 2.80 m
Spannweite 9.00 m
Form Box + pan
Hersteller SPXS
Bus-Typ Starlink
Phasenstatus In Orbit
Besitzer/Staat SPXS/US

Große Konstellationen

Loading constellations...